Location: Boiro
(42.6475°N, 8.8834°W)
Time: 22:54:49
(UTC+01:00)

Transit 2A - Pass Details

Date: 09 December 2021
Orbit: 591 x 967 km, 66.7° (Epoch: 18 January)

Event Time Altitude Azimuth Distance (km) Brightness Sun altitude
Rises 08:54:33 0° 330° (NNW) 3,663 9.0 -0.7°
Reaches altitude 10° 08:57:10 10° 333° (NNW) 2,712 8.3 -0.3°
Maximum altitude 09:03:34 69° 57° (ENE) 1,005 6.8 0.7°
Drops below altitude 10° 09:09:36 10° 141° (SE) 2,570 10.4 1.6°
Sets 09:12:02 0° 143° (SE) 3,460 11.1 2.0°
